THORAD DELTA 1 DEB, 8167

Orbit data source: Space-Track

THORAD DELTA 1 DEB, 8167 is space debris in SSO originally from a launch on Fri, 15 Nov 1974 UTC launched from the Air Force Western Test Range (AFWTR). Debris objects in space refer to the collection of defunct objects orbiting the Earth. Examples of debris include non-operational satellites, rocket bodies, and fragments generated from explosions, collisions, or faulty payload assembly.

Loading next visibility...
Identifier
8167, 1974-089AH
Orbit
SSO
Last TLE update
1 day ago
Origin
Manufacturer
Unknown
Mission
Spacecraft
Bus & Motor
Unknown
Mass
Unknown
Launch date (UTC)
1974-11-15 (51 years ago)
Launch vehicle
Unknown
Launch site
Air Force Western Test Range (AFWTR)
Object type
Payload
Rocket body
Debris
Shape & HBR
Unknown
Radar Cross Section
Small (<0.1 m²)

Expand to show TLE details & history

TLE from 1 day ago
0 THORAD DELTA 1 DEB
1 08167U 74089AH  25177.42448201  .00002811  00000-0  57127-2 0  9993
2 08167 101.3541 355.0049 0121700   5.9686  23.5883 13.31912672379979
Epoch: 2025-06-26T10:11Z
TLE epoch observation values (Epoch: 2025-06-26T10:11:15.245Z)
Latitude
29.52441°
Longitude
-79.09654°
Altitude
1,059.368 km
Speed
7.366 km/s
True Right ascension
23h 14m 02s
True Declination
29° 22' 59"
Sunlit
Object was in daylight at epoch
Visualization orbit readout
Latitude
27.67838°
Longitude
-77.45642°
Altitude
1,059.378 km
Speed
7.365 km/s
Apparent Right ascension
00h 47m 54s
Apparent Declination
-18° 39' 50"
Sunlit
Object is in daylight
Visualization observer readout
Local Sidereal Time
22:47:50
Azimuth
148.45° SSE
Elevation
25.079°
Doppler factor
1
Orbital elements
Apogee altitude
1,228.433 km
Perigee altitude
1,045.515 km
Semi-major axis
7,515.111 km
Eccentricity
0.01217
Inclination
101.3541°
RAAN
355.0049°
Arg. of periapsis
5.9686°
True anomaly
Unknown
Mean anomaly
23.5883°
Eccentric anomaly
Unknown
Mean motion
3.3315 °/min
Orbital period
108.06 mins
BSTAR
0.0057127
Loading maneuver chart data...
Loading SW <> Apogee altitude chart data...
Loading historical data...
Loading historical data...
Loading historical data...
Loading historical data...
Loading historical data...
Loading historical data...
Loading historical data...

THORAD DELTA 1 DEB Visibility forecast

Observer location: undefined°, undefined°

Span
Click to sort rows by Start time (UTC) header in descending order
Start Az.
Max El. time (UTC)
Max El. Az.
Max El.
End time (UTC)
End Az.
10 mins2025-06-27 11:25:00.435Z148.625° SSE2025-06-27 11:29:00.435Z68.446° E43.587°2025-06-27 11:35:00.435Z347.799° N
7 mins2025-06-27 13:13:00.435Z236.032° WSW2025-06-27 13:16:00.435Z267.609° W16.868°2025-06-27 13:20:00.435Z306.465° NW
12 mins2025-06-28 00:30:00.435Z26.331° NE2025-06-28 00:36:00.435Z113.625° SE41.483°2025-06-28 00:42:00.435Z182.831° SSW
10 mins2025-06-28 02:17:00.435Z348.576° N2025-06-28 02:22:00.435Z295.482° NW24.317°2025-06-28 02:27:00.435Z249.338° W
10 mins2025-06-28 10:51:00.435Z127.091° SE2025-06-28 10:56:00.435Z61.135° ENE33.387°2025-06-28 11:01:00.435Z0.453° NNE
|